TimeCDT,TemperatureF,Dew PointF,Humidity,Sea Level PressureIn,VisibilityMPH,Wind Direction,Wind SpeedMPH,Gust SpeedMPH,PrecipitationIn,Events,Conditions,WindDirDegrees,DateUTC
12:15 AM,80.4,74.3,82,29.83,10.0,SSW,6.9,-,N/A,,Clear,200,2013-06-29 05:15:00
12:35 AM,80.2,73.8,81,29.83,10.0,SSW,8.1,-,N/A,,Clear,210,2013-06-29 05:35:00
12:55 AM,79.9,73.6,81,29.82,10.0,SSW,6.9,-,N/A,,Clear,210,2013-06-29 05:55:00
1:15 AM,79.7,73.8,82,29.82,10.0,SSW,5.8,-,N/A,,Clear,210,2013-06-29 06:15:00
1:35 AM,79.0,74.8,87,29.82,10.0,SSW,4.6,-,N/A,,Clear,210,2013-06-29 06:35:00
1:55 AM,79.2,75.6,89,29.82,10.0,SW,5.8,-,N/A,,Clear,220,2013-06-29 06:55:00
2:15 AM,79.2,75.4,88,29.82,10.0,SW,5.8,-,N/A,,Clear,230,2013-06-29 07:15:00
2:35 AM,78.8,75.7,90,29.82,10.0,North,-9999.0,-,N/A,,Clear,0,2013-06-29 07:35:00
2:55 AM,78.3,76.6,95,29.82,10.0,North,-9999.0,-,N/A,,Clear,0,2013-06-29 07:55:00
3:15 AM,77.7,77.0,98,29.82,10.0,North,-9999.0,-,N/A,,Clear,0,2013-06-29 08:15:00
3:35 AM,77.0,77.0,100,29.82,10.0,North,-9999.0,-,N/A,,Scattered Clouds,0,2013-06-29 08:35:00
3:55 AM,77.2,77.0,99,29.82,10.0,North,-9999.0,-,N/A,,Scattered Clouds,0,2013-06-29 08:55:00
4:15 AM,77.5,77.0,98,29.82,10.0,North,-9999.0,-,N/A,,Mostly Cloudy,0,2013-06-29 09:15:00
4:35 AM,77.4,77.0,99,29.82,10.0,North,-9999.0,-,N/A,,Scattered Clouds,0,2013-06-29 09:35:00
4:55 AM,77.2,76.6,98,29.82,10.0,North,-9999.0,-,N/A,,Scattered Clouds,0,2013-06-29 09:55:00
5:15 AM,77.0,76.5,98,29.82,10.0,North,-9999.0,-,N/A,,Scattered Clouds,0,2013-06-29 10:15:00
5:35 AM,76.8,76.6,99,29.84,10.0,WNW,4.6,-,N/A,,Scattered Clouds,300,2013-06-29 10:35:00
5:55 AM,75.7,75.7,100,29.83,10.0,North,-9999.0,-,N/A,,Scattered Clouds,0,2013-06-29 10:55:00
6:15 AM,76.3,76.3,100,29.83,10.0,North,-9999.0,-,N/A,,Clear,0,2013-06-29 11:15:00
6:35 AM,76.3,76.3,100,29.83,10.0,North,-9999.0,-,N/A,,Clear,0,2013-06-29 11:35:00
6:55 AM,77.0,76.8,99,29.84,10.0,North,-9999.0,-,N/A,,Clear,0,2013-06-29 11:55:00
7:15 AM,77.5,77.0,98,29.84,10.0,WSW,5.8,-,N/A,,Clear,250,2013-06-29 12:15:00
7:35 AM,78.8,77.0,94,29.85,10.0,North,-9999.0,-,N/A,,Clear,0,2013-06-29 12:35:00
7:55 AM,79.9,74.7,84,29.85,10.0,WSW,5.8,-,N/A,,Scattered Clouds,250,2013-06-29 12:55:00
8:15 AM,81.7,73.9,77,29.85,10.0,WSW,8.1,-,N/A,,Scattered Clouds,250,2013-06-29 13:15:00
8:35 AM,82.6,73.6,74,29.85,10.0,WSW,8.1,-,N/A,,Clear,250,2013-06-29 13:35:00
8:55 AM,83.8,73.0,70,29.84,10.0,WSW,9.2,17.3,N/A,,Clear,250,2013-06-29 13:55:00
9:15 AM,85.5,72.9,66,29.84,10.0,North,-9999.0,-,N/A,,Clear,0,2013-06-29 14:15:00
9:35 AM,86.4,72.0,62,29.83,10.0,WSW,8.1,-,N/A,,Clear,250,2013-06-29 14:35:00
9:55 AM,87.6,71.1,58,29.83,10.0,North,-9999.0,-,N/A,,Clear,0,2013-06-29 14:55:00
10:15 AM,88.7,71.1,56,29.83,10.0,West,12.7,18.4,N/A,,Clear,260,2013-06-29 15:15:00
10:35 AM,89.4,71.4,55,29.82,10.0,WSW,10.4,-,N/A,,Clear,250,2013-06-29 15:35:00
10:55 AM,91.2,71.4,52,29.82,10.0,West,8.1,-,N/A,,Clear,270,2013-06-29 15:55:00
11:15 AM,91.0,71.4,52,29.82,10.0,West,9.2,-,N/A,,Clear,270,2013-06-29 16:15:00
11:35 AM,92.3,71.8,51,29.81,10.0,WNW,5.8,-,N/A,,Clear,290,2013-06-29 16:35:00
11:55 AM,92.7,71.1,49,29.81,10.0,West,4.6,16.1,N/A,,Clear,280,2013-06-29 16:55:00
12:15 PM,93.7,71.6,48,29.81,10.0,WSW,8.1,-,N/A,,Clear,250,2013-06-29 17:15:00
12:35 PM,94.8,71.6,47,29.81,10.0,NW,6.9,-,N/A,,Clear,310,2013-06-29 17:35:00
12:55 PM,94.6,71.1,46,29.81,10.0,NNW,6.9,-,N/A,,Clear,330,2013-06-29 17:55:00
1:15 PM,96.3,70.5,43,29.80,10.0,NNW,5.8,-,N/A,,Clear,330,2013-06-29 18:15:00
1:35 PM,97.2,71.1,43,29.79,10.0,NNW,4.6,-,N/A,,Clear,340,2013-06-29 18:35:00
1:55 PM,97.3,70.7,42,29.78,10.0,NNW,6.9,-,N/A,,Clear,330,2013-06-29 18:55:00
2:15 PM,98.4,68.4,37,29.78,10.0,NW,3.5,-,N/A,,Clear,320,2013-06-29 19:15:00
2:35 PM,99.5,67.3,35,29.77,10.0,NNW,6.9,-,N/A,,Clear,340,2013-06-29 19:35:00
2:55 PM,99.5,65.5,33,29.76,10.0,North,5.8,-,N/A,,Clear,10,2013-06-29 19:55:00
3:15 PM,100.2,67.3,34,29.76,10.0,North,5.8,-,N/A,,Clear,360,2013-06-29 20:15:00
3:35 PM,100.4,66.9,34,29.75,10.0,North,6.9,-,N/A,,Clear,360,2013-06-29 20:35:00
3:55 PM,100.8,64.4,30,29.74,10.0,North,10.4,-,N/A,,Clear,360,2013-06-29 20:55:00
4:15 PM,101.7,64.0,29,29.74,10.0,North,10.4,-,N/A,,Clear,360,2013-06-29 21:15:00
4:35 PM,101.3,63.7,29,29.73,10.0,North,8.1,-,N/A,,Clear,10,2013-06-29 21:35:00
4:55 PM,101.1,64.2,30,29.72,10.0,North,9.2,18.4,N/A,,Clear,350,2013-06-29 21:55:00
5:15 PM,101.3,64.6,30,29.72,10.0,North,9.2,-,N/A,,Clear,350,2013-06-29 22:15:00
5:35 PM,100.8,64.0,30,29.71,10.0,North,8.1,-,N/A,,Clear,360,2013-06-29 22:35:00
5:55 PM,100.4,64.9,31,29.71,10.0,North,9.2,-,N/A,,Clear,360,2013-06-29 22:55:00
6:15 PM,99.7,65.5,33,29.71,10.0,North,6.9,-,N/A,,Clear,360,2013-06-29 23:15:00
6:35 PM,99.1,65.8,34,29.71,10.0,North,6.9,-,N/A,,Clear,360,2013-06-29 23:35:00
6:55 PM,98.2,67.3,36,29.71,10.0,North,4.6,-,N/A,,Clear,360,2013-06-29 23:55:00
7:15 PM,97.2,67.5,38,29.71,10.0,North,4.6,-,N/A,,Clear,360,2013-06-30 00:15:00
7:35 PM,95.9,68.2,40,29.71,10.0,North,3.5,-,N/A,,Clear,360,2013-06-30 00:35:00
7:55 PM,91.4,74.1,57,29.72,10.0,Calm,Calm,-,N/A,,Clear,0,2013-06-30 00:55:00
8:15 PM,87.8,72.9,61,29.72,10.0,Calm,Calm,-,N/A,,Clear,0,2013-06-30 01:15:00
8:35 PM,85.5,73.4,67,29.73,10.0,SSW,4.6,-,N/A,,Clear,210,2013-06-30 01:35:00
8:55 PM,86.2,76.6,73,29.73,10.0,Calm,Calm,-,N/A,,Clear,0,2013-06-30 01:55:00
9:15 PM,85.5,77.0,76,29.74,10.0,Calm,Calm,-,N/A,,Clear,0,2013-06-30 02:15:00
9:35 PM,84.6,76.5,77,29.75,10.0,SSW,3.5,-,N/A,,Clear,200,2013-06-30 02:35:00
9:55 PM,82.8,77.7,85,29.75,10.0,SW,4.6,-,N/A,,Clear,220,2013-06-30 02:55:00
10:15 PM,83.5,80.1,89,29.77,10.0,Calm,Calm,-,N/A,,Clear,0,2013-06-30 03:15:00
10:35 PM,82.9,80.6,93,29.77,10.0,South,4.6,-,N/A,,Clear,190,2013-06-30 03:35:00
10:55 PM,82.6,81.1,95,29.78,10.0,South,3.5,-,N/A,,Clear,190,2013-06-30 03:55:00
11:15 PM,82.0,81.7,99,29.79,10.0,Calm,Calm,-,N/A,,Clear,0,2013-06-30 04:15:00
11:35 PM,82.4,81.7,98,29.79,10.0,North,-9999.0,-,N/A,,Clear,0,2013-06-30 04:35:00
11:55 PM,81.3,81.3,100,29.79,10.0,North,-9999.0,-,N/A,,Clear,0,2013-06-30 04:55:00